Regional Weather Roundup
Issued by NWS

Home | Current Version | Previous Version | Text Only | Print | Product List | Glossary On
Versions: 1 2 3 4 5 6 7 8 9 10 11 12 13 14 15 16 17 18 19 20 21 22 23 24 25 26 27 28
000
ASUS44 KBMX 211610
RWRAL

ALABAMA REGIONAL WEATHER ROUNDUP
NATIONAL WEATHER SERVICE BIRMINGHAM AL
1100 AM CDT THU SEP 21 2017

NOTE: "FAIR" INDICATES FEW OR NO CLOUDS BELOW 12,000 FEET
WITH NO SIGNIFICANT WEATHER AND/OR OBSTRUCTIONS TO VISIBILITY.

THE REMARK "TC" DENOTES TEMPERATURE IN DEGREES CELSIUS.

ALZ001>011-014-016>018-020-211700-
NORTH ALABAMA

CITY           SKY/WX    TMP DP  RH WIND       PRES   REMARKS
MUSCLE SHOALS  SUNNY     86  73  65 CALM      30.10S HX  93
HUNTSVILLE     PTSUNNY   82  74  76 CALM      30.11R
DECATUR        MOSUNNY   80  74  81 NE3       30.11S
HALEYVILLE     PTSUNNY   86  72  62 NE5       30.12F HX  92
GADSDEN        SUNNY     84  73  69 CALM      30.10S HX  90
$$

ALZ012-013-022-023-030>036-040>044-211700-
WEST CENTRAL ALABAMA

CITY           SKY/WX    TMP DP  RH WIND       PRES   REMARKS
TUSCALOOSA     SUNNY     86  75  69 E6        30.07F HX  95
DEMOPOLIS      NOT AVBL
$$

ALZ015-024>026-033>036-041>044-211700-
CENTRAL ALABAMA

CITY           SKY/WX    TMP DP  RH WIND       PRES   REMARKS
BIRMINGHAM     MOSUNNY   86  71  60 NW7       30.12S HX  91
MONTGOMERY     SUNNY     89  69  51 VRB6      30.06S HX  93
SHELBY CO ARPT SUNNY     84  72  67 NE6       30.09F
MAXWELL AFB    SUNNY     86  71  60 N5        30.06S HX  91
GREENVILLE     FAIR      89  67  47 VRB6      30.06S HX  92
SELMA          NOT AVBL
PRATTVILLE     FAIR      85  71  63 NW3       30.06S HX  91
BESSEMER       FAIR      84  72  67 NE8       30.10F
TALLADEGA      FAIR     N/A N/A N/A MISG      30.10S
PELL CITY      SUNNY     84  73  70 NE6       30.10S HX  91
MARION         FAIR      86  71  59 N5        30.07S HX  91
SYLACAUGA      FAIR      83  72  68 CALM      30.10S
$$

ALZ019-021-028-029-037-038-045>048-211700-
EAST CENTRAL ALABAMA

CITY           SKY/WX    TMP DP  RH WIND       PRES   REMARKS
ANNISTON       SUNNY     84  71  65 CALM      30.09F
ALEXANDER CITY SUNNY     83  70  66 E3        30.09F
AUBURN         NOT AVBL
$$

ALZ051>064-211700-
SOUTHWEST ALABAMA

CITY           SKY/WX    TMP DP  RH WIND       PRES   REMARKS
MOBILE         MOSUNNY   85  73  67 NE6       30.05F HX  91
BROOKLEY FIELD MOSUNNY   84  75  74 NE6       30.05F HX  92
EVERGREEN      MOSUNNY   88  71  57 E7        30.06S HX  94
$$

ALZ049-050-065>069-211700-
SOUTHEAST ALABAMA

CITY           SKY/WX    TMP DP  RH WIND       PRES   REMARKS
DOTHAN         SUNNY     87  74  64 E6        30.08S HX  95
OZARK          MOSUNNY   85  73  66 NE3       30.04S HX  92
TROY           SUNNY     86  71  60 VRB5      30.07S HX  91
EUFAULA        FAIR      88  74  63 VRB3      30.04F HX  96
$$




USA.gov is the U.S. government's official web portal to all federal, state and local government web resources and services.